Location: Bern�tre
(50.1974°N, 2.0915°E)
Time: 15:00:46
(UTC+00:00)

Cosmos 1733 - Pass Details

Date: 18 September 2020
Orbit: 504 x 523 km, 82.5° (Epoch: 23 October)

Event Time Altitude Azimuth Distance (km) Brightness Sun altitude
Exits shadow 20:51:53 38° 345° (NNW) 805 4.5 -26.5°
Drops below altitude 10° 20:54:28 10° 4° (N) 1,760 6.3 -26.8°
Sets 20:56:38 0° 8° (N) 2,650 7.2 -27.1°
